FENGYUN 1C DEB, 41832

Orbit data source: Space-Track

FENGYUN 1C DEB, 41832 is space debris in SSO originally from a launch on Mon, 10 May 1999 UTC launched from the Taiyaun Space Center, China (TSC). Fengyun 1C debris stems from the Chinese weather satellite Fengyun-1C, which was intentionally destroyed by a Chinese anti-satellite missile in 2007. This event dramatically increased the amount of space debris, with thousands of trackable fragments posing hazards to satellites and human spaceflight. The Fengyun 1C debris cloud has become a focal point in discussions about space sustainability and the need for international regulations to prevent the creation of new debris.

Loading next visibility...
Identifier
41832, 1999-025EYK
Orbit
SSO
Country
Flag of CNCN / PRC
Related business
Manufacturer
Unknown
Mission
Spacecraft
Bus & Motor
Unknown
Mass
Unknown
Launch date (UTC)
1999-05-10 (26 years ago)
Launch vehicle
Unknown
Launch site
Taiyaun Space Center, China (TSC)
Object type
Payload
Rocket body
Debris
Shape & HBR
Unknown
Radar Cross Section
Small (<0.1 m²)

Expand to show TLE details & history
Last TLE update: 13 hours ago

TLE from 13 hours ago
0 FENGYUN 1C DEB
1 41832U 99025EYK 25260.69814375  .00002785  00000-0  12263-2 0  9999
2 41832  98.7367 325.3282 0057089 116.9986 243.7037 14.23364212461267
Epoch: 2025-09-17T16:45Z
TLE epoch observation values (Epoch: 2025-09-17T16:45:19.619Z)
Latitude
-0.00004°
Longitude
77.1261°
Altitude
835.297 km
Speed
7.426 km/s
True Right ascension
21h 41m 18s
True Declination
0° 00' 00"
Sunlit
Object was in full shadow at epoch
Visualization orbit readout
Latitude
Unknown
Longitude
Unknown
Altitude
Unknown
Speed
Unknown
Apparent Right ascension
Unknown
Apparent Declination
Unknown
Sunlit
N/A
Visualization observer readout
Local Sidereal Time
22:29:29
Azimuth
Unknown
Elevation
Unknown
Doppler factor
Unknown
Orbital elements
Apogee altitude
852.196 km
Perigee altitude
770.11 km
Semi-major axis
7,189.29 km
Eccentricity
0.00571
Inclination
98.7367°
RAAN
325.3282°
Arg. of periapsis
116.9986°
True anomaly
243.11907°
Mean anomaly
243.7037°
Eccentric anomaly
243.4112°
Mean motion
3.56053 °/min
Orbital period
101.11 mins
BSTAR
0.0012263
Loading maneuver chart data...
Computing Atmospheric mass density...
Loading historical data...
Loading historical data...
Loading historical data...
Loading historical data...
Loading historical data...
Loading historical data...
Loading historical data...

Documentation

Showing up to 5 results
|